Weather History for NFFN - October, 2012

Change the Weather History Date:

Monday, October 22, 2012

  Actual Average Record
Temperature  
Mean Temperature 80 °F -  
Max Temperature 86 °F 84 °F 91 °F (1998)
Min Temperature 73 °F 69 °F 64 °F (2000)
Cooling Degree Days 14    
Growing Degree Days 30 (Base 50)    
Moisture  
Dew Point 73 °F    
Average Humidity 82    
Maximum Humidity 100    
Minimum Humidity 61    
Precipitation  
Precipitation 0.00 in 0.17 in - ()
Sea Level Pressure  
Sea Level Pressure 29.86 in    
Wind  
Wind Speed 3 mph ()    
Max Wind Speed 13 mph    
Max Gust Speed -    
Visibility 12.0 miles    
Events      
Averages and records for this station are not official NWS values.
T = Trace of Precipitation, MM = Missing Value Source: Averaged Metar Reports

Daily Weather History Graph

Daily Weather History Graph

Search for Another Location

Airport or City:

Trip Planner

Search our weather history database for the weather conditions in past years. The results will help you decide how hot, cold, wet, or windy it might be!

Date:

Astronomy

Oct. 22, 2012 Rise Set
Actual Time 6:36 AM FJST 7:12 PM FJST
Civil Twilight 6:14 AM FJST 7:35 PM FJST
Nautical Twilight 5:48 AM FJST 8:01 PM FJST
Astronomical Twilight 5:22 AM FJST 8:27 PM FJST
Moon 12:38 PM FJST (10/22) 12:56 AM FJST (10/22)
Length of Visible Light 13h 20m
Length of Day
12h 35m
Waxing Crescent, 48% of the Moon is Illuminated
Oct 22
Waxing Crescent
Oct 22
First Quarter
Oct 30
Full
Nov 7
Last Quarter
Nov 14
New

Hourly Weather History & Observations

Time (FJST) Temp. Heat Index Dew Point Humidity Pressure Visibility Wind Dir Wind Speed Gust Speed Precip Events Conditions
12:00 AM 77.0 °F - 75.2 °F 94% 29.89 in 24.9 mi Calm Calm - N/A   Partly Cloudy
1:00 AM 76 °F - 72 °F 84% 29.89 in 12 mi SE 5.8 mph - -   Partly Cloudy
1:00 AM 77.0 °F - 71.6 °F 83% 29.89 in 24.9 mi SE 5.8 mph - N/A   Partly Cloudy
2:00 AM 75.2 °F - 71.6 °F 89% 29.86 in 24.9 mi Calm Calm - N/A   Partly Cloudy
3:00 AM 73.4 °F - 71.6 °F 94% 29.86 in 24.9 mi Calm Calm - N/A   Partly Cloudy
4:00 AM 73 °F - 71 °F 90% 29.85 in 12 mi East 4.6 mph - -   Partly Cloudy
4:00 AM 73.4 °F - 71.6 °F 94% 29.83 in 24.9 mi East 4.6 mph - N/A   Partly Cloudy
5:00 AM 73.4 °F - 71.6 °F 94% 29.83 in 24.9 mi ESE 3.5 mph - N/A   Scattered Clouds
6:00 AM 73.4 °F - 71.6 °F 94% 29.86 in 24.9 mi East 4.6 mph - N/A   Partly Cloudy
7:00 AM 73 °F - 71 °F 92% 29.87 in 31 mi East 4.6 mph - -   Partly Cloudy
7:00 AM 73.4 °F - 71.6 °F 94% 29.86 in 31.1 mi East 4.6 mph - N/A   Scattered Clouds
8:00 AM 75.2 °F - 71.6 °F 89% 29.89 in 31.1 mi Calm Calm - N/A   Scattered Clouds
9:00 AM 78.8 °F - 73.4 °F 83% 29.89 in 31.1 mi Calm Calm - N/A   Scattered Clouds
10:00 AM 83 °F - 72 °F 61% 29.90 in 31 mi Calm Calm - -   Partly Cloudy
10:00 AM 82.4 °F 87.2 °F 71.6 °F 70% 29.89 in 31.1 mi Calm Calm - N/A   Scattered Clouds
11:00 AM 86.0 °F 93.4 °F 73.4 °F 66% 29.89 in 31.1 mi Calm Calm - N/A   Scattered Clouds
12:00 PM 82.4 °F 87.2 °F 71.6 °F 70% 29.86 in 31.1 mi WNW 10.4 mph - N/A   Mostly Cloudy
1:00 PM 83 °F - 73 °F 65% 29.88 in 31 mi West 9.2 mph - -   Partly Cloudy
1:00 PM 82.4 °F 88.2 °F 73.4 °F 74% 29.86 in 31.1 mi West 9.2 mph - N/A   Mostly Cloudy
2:00 PM 84.2 °F 90.9 °F 73.4 °F 70% 29.86 in 31.1 mi West 6.9 mph - N/A   Scattered Clouds
3:00 PM 84.2 °F 90.9 °F 73.4 °F 70% 29.83 in 31.1 mi West 11.5 mph - N/A   Scattered Clouds
4:00 PM 85 °F - 75 °F 66% 29.83 in 31 mi West 11.5 mph - -   Partly Cloudy
4:00 PM 84.2 °F 92.3 °F 75.2 °F 74% 29.83 in 31.1 mi West 11.5 mph - N/A   Scattered Clouds
5:00 PM 84.2 °F 90.9 °F 73.4 °F 70% 29.80 in 31.1 mi West 12.7 mph - N/A   Scattered Clouds
6:00 PM 82.4 °F 89.5 °F 75.2 °F 79% 29.80 in 31.1 mi West 6.9 mph - N/A   Scattered Clouds
7:00 PM 83 °F - 75 °F 70% 29.85 in 31 mi West 4.6 mph - -   Partly Cloudy
7:00 PM 82.4 °F 89.5 °F 75.2 °F 79% 29.83 in 31.1 mi West 4.6 mph - N/A   Scattered Clouds
8:00 PM 80.6 °F 86.2 °F 75.2 °F 84% 29.86 in 28.0 mi Calm Calm - N/A   Scattered Clouds
9:00 PM 78.8 °F - 77.0 °F 94% 29.86 in 28.0 mi East 4.6 mph - N/A   Partly Cloudy
10:00 PM 78 °F - 76 °F 94% 29.90 in 12 mi Calm Calm - -   Partly Cloudy
10:00 PM 77.0 °F - 77.0 °F 100% 29.89 in 28.0 mi Calm Calm - N/A   Partly Cloudy
11:00 PM 77.0 °F - 75.2 °F 94% 29.89 in 28.0 mi Calm Calm - N/A   Partly Cloudy